Evenes, Norway

3:47 AM CEST on October 18, 2017 (GMT +0200)
Evenes

Weather History for ENEV - June, 2017

Change the Weather History Date:

Monday, June 19, 2017

  Actual Average Record
Temperature  
Mean Temperature 50 °F -  
Max Temperature 54 °F 58 °F 68 °F (2001)
Min Temperature 47 °F 48 °F 37 °F (2014)
Degree Days  
Heating Degree Days 14    
Moisture  
Dew Point 48 °F    
Average Humidity 91    
Maximum Humidity 100    
Minimum Humidity 69    
Precipitation  
Precipitation 0.00 in - - ()
Sea Level Pressure  
Sea Level Pressure 29.66 in    
Wind  
Wind Speed 6 mph ()    
Max Wind Speed 13 mph    
Max Gust Speed 22 mph    
Visibility 5.9 miles    
Events Rain    
Averages and records for this station are not official NWS values.
T = Trace of Precipitation, MM = Missing Value Source: Averaged Metar Reports

Daily Weather History Graph

Daily Weather History Graph

Search for Another Location

Airport or City:

Trip Planner

Search our weather history database for the weather conditions in past years. The results will help you decide how hot, cold, wet, or windy it might be!

Date:

Astronomy

Jan. 01, 1970 Rise Set
Actual Time Sun does not rise Sun does not rise
Civil Twilight Sun does not rise Sun does not rise
Nautical Twilight Sun does not rise Sun does not rise
Astronomical Twilight Sun does not rise Sun does not rise
Moon 1:43 AM CEST (6/19) 3:36 PM CEST (6/19)
Length of Visible Light 24h 00m
Length of Day
24h 00m
Waning Crescent, 29% of the Moon is Illuminated
Jun 19
Waning Crescent
Jun 24
New
Jul 1
First Quarter
Jul 9
Full
Jul 16
Last Quarter

Hourly Weather History & Observations

Time (CEST) Temp. Dew Point Humidity Pressure Visibility Wind Dir Wind Speed Gust Speed Precip Events Conditions
12:50 AM 48.2 °F 48.2 °F 100% 29.68 in 5.0 mi South 5.8 mph - N/A   Drizzle
1:00 AM 48 °F 48 °F 100% 29.69 in - South 4.5 mph - -  
1:20 AM 48.2 °F 48.2 °F 100% 29.68 in 2.8 mi South 3.5 mph - N/A Rain Rain
1:50 AM 48.2 °F 48.2 °F 100% 29.68 in 6.2 mi South 4.6 mph - N/A Rain Light Rain
2:00 AM 49 °F 49 °F 99% 29.68 in - ESE 4.5 mph - -  
2:20 AM 48.2 °F 48.2 °F 100% 29.68 in 6.2 mi WSW 6.9 mph 21.9 mph N/A Rain Light Rain
2:50 AM 48.2 °F 48.2 °F 100% 29.68 in 6.2 mi SSW 5.8 mph - N/A   Mostly Cloudy
3:00 AM 48 °F 48 °F 99% 29.68 in - SSW 6.7 mph - -  
3:20 AM 48.2 °F 46.4 °F 93% 29.65 in 6.2 mi SSW 4.6 mph - N/A   Overcast
3:50 AM 48.2 °F 48.2 °F 100% 29.65 in 6.2 mi South 4.6 mph - N/A   Drizzle
4:00 AM 47 °F 47 °F 100% 29.68 in - South 4.5 mph - -  
4:20 AM 48.2 °F 48.2 °F 100% 29.65 in 3.1 mi South 5.8 mph - N/A Rain Rain
4:50 AM 48.2 °F 48.2 °F 100% 29.68 in 5.0 mi Variable 2.3 mph - N/A Rain Light Rain
5:00 AM 48 °F 48 °F 98% 29.69 in - SE 4.5 mph - -  
5:20 AM 48.2 °F 48.2 °F 100% 29.65 in 6.2 mi SE 4.6 mph - N/A   Mostly Cloudy
5:50 AM 48.2 °F 48.2 °F 100% 29.68 in 6.2 mi South 6.9 mph - N/A Rain Light Rain Showers
6:50 AM 48.2 °F 48.2 °F 100% 29.68 in 6.2 mi South 9.2 mph - N/A   Mostly Cloudy
7:00 AM 50 °F 49 °F 95% 29.68 in - SW 8.9 mph - -  
7:50 AM 50.0 °F 48.2 °F 94% 29.65 in 6.2 mi WSW 11.5 mph - N/A Rain Light Rain Showers
8:00 AM 51 °F 49 °F 89% 29.68 in - SW 8.9 mph - -  
8:50 AM 50.0 °F 48.2 °F 94% 29.68 in 4.3 mi SW 4.6 mph - N/A Rain Light Rain Showers
9:00 AM 50 °F 49 °F 94% 29.69 in - SSW 8.9 mph - -  
9:20 AM 50.0 °F 48.2 °F 94% 29.68 in 6.2 mi SW 8.1 mph - N/A Rain Light Rain Showers
9:50 AM 50.0 °F 48.2 °F 94% 29.68 in 5.6 mi SW 11.5 mph - N/A Rain Light Rain Showers
10:20 AM 50.0 °F 48.2 °F 94% 29.68 in 6.2 mi South 5.8 mph - N/A Rain Light Rain Showers
10:50 AM 50.0 °F 48.2 °F 94% 29.68 in 6.2 mi SSW 9.2 mph - N/A   Mostly Cloudy
11:00 AM 51 °F 47 °F 83% 29.69 in - SSW 8.9 mph - -  
11:20 AM 50.0 °F 48.2 °F 94% 29.68 in 6.2 mi South 9.2 mph - N/A Rain Light Rain Showers
11:50 AM 51.8 °F 46.4 °F 82% 29.68 in 6.2 mi SW 10.4 mph - N/A   Mostly Cloudy
12:50 PM 53.6 °F 46.4 °F 77% 29.68 in 6.2 mi SW 12.7 mph - N/A   Mostly Cloudy
1:00 PM 54 °F 47 °F 69% 29.70 in - South 13.4 mph - -  
1:50 PM 51.8 °F 46.4 °F 82% 29.68 in 6.2 mi SW 10.4 mph - N/A   Light Drizzle
2:00 PM 51 °F 48 °F 85% 29.70 in - SW 8.9 mph - -  
2:20 PM 51.8 °F 48.2 °F 88% 29.68 in 6.2 mi SW 9.2 mph - N/A Rain Light Rain Showers
2:50 PM 51.8 °F 48.2 °F 88% 29.68 in 6.2 mi SW 11.5 mph - N/A   Mostly Cloudy
3:00 PM 53 °F 48 °F 79% 29.69 in - SSW 8.9 mph - -  
3:50 PM 53.6 °F 44.6 °F 72% 29.65 in 6.2 mi SSW 9.2 mph - N/A   Mostly Cloudy
4:00 PM 52 °F 47 °F 76% 29.68 in - SW 6.7 mph - -  
4:50 PM 51.8 °F 44.6 °F 76% 29.65 in 6.2 mi SSW 6.9 mph - N/A Rain Light Rain Showers
5:00 PM 51 °F 48 °F 87% 29.67 in - SW 6.7 mph - -  
5:50 PM 51.8 °F 50.0 °F 94% 29.65 in 6.2 mi SSW 6.9 mph - N/A   Mostly Cloudy
6:00 PM 53 °F 46 °F 71% 29.65 in - SSW 6.7 mph - -  
6:50 PM 51.8 °F 48.2 °F 88% 29.65 in 6.2 mi SSW 6.9 mph - N/A Rain Light Rain Showers
7:00 PM 51 °F 48 °F 86% 29.65 in - South 6.7 mph - -  
7:20 PM 51.8 °F 48.2 °F 88% 29.62 in 6.2 mi South 6.9 mph - N/A   Light Drizzle
7:50 PM 50.0 °F 48.2 °F 94% 29.62 in 6.2 mi South 6.9 mph - N/A   Mostly Cloudy
8:00 PM 51 °F 48 °F 86% 29.63 in - SSE 6.7 mph - -  
8:20 PM 50.0 °F 48.2 °F 94% 29.62 in 6.2 mi South 6.9 mph - N/A   Mostly Cloudy
8:50 PM 50.0 °F 48.2 °F 94% 29.62 in 6.2 mi SW 4.6 mph - N/A   Light Drizzle
9:00 PM 51 °F 47 °F 80% 29.62 in - SSW 2.2 mph - -  
9:50 PM 50.0 °F 48.2 °F 94% 29.59 in 6.2 mi SSW 5.8 mph - N/A   Light Drizzle
10:00 PM 49 °F 47 °F 92% 29.61 in - SSE 4.5 mph - -  
10:50 PM 50.0 °F 48.2 °F 94% 29.59 in 6.2 mi SSE 5.8 mph - N/A   Light Drizzle
11:00 PM 49 °F 48 °F 95% 29.60 in - South 4.5 mph - -  
11:50 PM 48.2 °F 48.2 °F 100% 29.59 in 6.2 mi SSW 3.5 mph - N/A Rain Light Rain